User: anonymous   Login
Location: Famechon
(49.7599°N, 2.0615°E)
Time: 22:11:50
(UTC+00:00)
Language:

FENGYUN 1C DEB - Orbit

View from above orbital plane
View from above orbital plane
View from above satellite
View from above satellite

Ground track
Ground track

The orbit data is extracted from the following two-line orbital elements,

1 30336U 99025AAX 24056.89593003  .00000863  00000-0  44094-3 0  9995
2 30336  98.6631  89.5086 0045592  96.6505  26.8305 14.17582338883041
Epoch (UTC): 25 February 2024 21:30:08
Eccentricity: 0.0045592
inclination: 98.6631°
perigee height: 800 km
apogee height: 866 km
right ascension of ascending node: 89.5086°
argument of perigee: 96.6505°
revolutions per day: 14.17582338
mean anomaly at epoch: 26.8305°
orbit number at epoch: 88304

The dashed part of the orbit path shows where the satellite is in the earth's shadow,  

DLR